Temp
4 4 4 4 4 4 4 4 4 4 4 4 4 4 4 4 4 4 4 4 4 4 4 5 5 5 5 5 5 5 5 4 4 4 4 4 5 5 5 5 5 5 5 6 5 5 5 5 5 5 5 5 6 6 6 6 6 7 7 7 7 8 8 8 8 9 9 9 9
3 3 4 4 4 4 4 4 4 4 4 4 4 4 4 4 4 3 3 3 3 3 4 4 4 4 4 4 4 4 4 4 4 4 4 4 4 4 4 5 5 5 5 5 5 5 5 5 5 5 5 5 5 5 5 6 6 6 6 7 7 7 7 7 8 8 8 9 9
3 3 3 3 4 4 4 4 4 4 4 4 4 4 4 4 3 3 3 3 3 3 3 3 3 3 3 3 3 3 3 3 3 3 3 4 4 4 4 4 4 4 4 4 4 4 4 4 4 5 5 5 5 5 5 5 6 6 6 6 7 7 7 7 7 7 8 8 8
2 2 3 3 3 3 4 4 4 4 4 4 4 4 4 4 3 3 3 3 3 3 3 3 3 3 3 3 3 3 3 3 3 3 3 3 3 4 4 4 4 4 4 4 4 4 4 4 4 4 5 5 5 5 5 6 6 6 6 6 6 6 7 7 7 7 7 7 7
2 2 2 3 3 3 3 3 4 4 4 4 4 4 4 4 3 3 3 3 3 3 3 3 3 3 3 2 2 2 2 2 2 3 3 3 3 3 3 3 3 3 4 4 4 4 4 4 4 4 4 5 5 5 5 5 6 6 6 6 6 6 6 6 6 6 6 7 7
2 2 2 2 2 3 3 3 3 3 3 3 4 4 4 3 3 3 3 3 3 3 3 2 2 2 2 2 2 2 2 2 2 2 2 3 3 3 3 3 3 3 3 3 3 4 4 4 4 4 4 5 5 5 5 5 5 6 6 6 6 6 6 6 6 6 6 6 6
1 2 2 2 2 2 2 3 3 3 3 3 3 3 3 3 3 3 3 3 3 3 3 2 2 2 2 2 2 2 2 2 2 2 2 2 2 2 3 3 3 3 3 3 3 4 4 4 4 4 4 4 5 5 5 5 5 5 5 5 5 5 5 5 5 6 6 5 6
1 1 2 2 2 2 2 2 2 3 3 3 3 3 3 3 3 3 3 3 3 2 2 2 2 2 2 2 2 2 2 2 2 2 2 2 2 2 2 2 3 3 3 3 3 3 4 4 4 4 4 4 4 5 5 5 5 5 5 5 5 5 5 5 5 5 5 5 5
1 1 1 2 2 2 2 2 2 2 2 2 2 2 2 2 2 2 2 2 2 2 2 2 2 2 2 2 2 2 1 1 1 1 1 2 2 2 2 2 2 3 3 3 3 3 3 3 4 4 4 4 4 4 4 5 5 5 5 5 5 5 5 5 5 5 5 5 5
1 1 1 1 1 2 2 2 2 2 2 2 2 2 2 2 2 2 2 2 2 1 1 1 1 1 1 1 1 1 1 1 1 1 1 1 2 2 2 2 2 2 2 3 3 3 3 3 3 4 4 4 4 4 4 4 4 4 4 4 4 4 4 4 4 4 5 5 5
1 1 1 1 1 1 1 1 2 2 2 2 2 2 2 2 2 1 1 1 1 1 1 1 1 1 1 1 1 1 1 1 0 1 1 1 1 1 2 2 2 2 2 2 3 3 3 3 3 3 4 4 4 4 4 4 4 4 4 4 4 4 4 4 4 4 4 4 4
1 1 1 1 1 1 1 1 1 1 1 1 1 1 1 1 1 1 1 1 1 1 1 1 1 1 1 1 1 1 1 0 0 1 1 1 1 1 1 2 2 2 2 2 2 3 3 3 3 3 3 4 3 3 4 4 4 3 3 4 4 4 4 4 4 4 4 4 4
1 1 1 1 1 1 1 1 1 1 1 1 1 1 1 1 1 1 1 1 1 1 0 0 0 1 1 1 1 0 0 0 0 0 1 1 1 1 1 1 2 2 2 2 2 2 3 3 3 3 3 3 3 3 3 3 3 3 3 3 3 4 4 4 4 4 4 4 4
1 1 1 1 1 1 1 1 1 1 1 1 1 1 1 1 1 0 0 0 0 0 0 0 0 0 0 0 0 0 0 -0 -0 0 0 1 1 1 1 1 1 2 2 2 2 2 2 2 3 3 3 3 3 3 3 3 3 3 3 3 3 3 3 4 4 4 4 4 4
0 1 1 1 1 1 1 1 1 1 1 1 1 1 1 0 0 0 0 0 0 0 0 0 0 0 -0 0 0 0 -0 -0 -0 -0 -0 0 0 1 1 1 1 1 2 2 2 2 2 2 2 2 3 3 3 3 3 3 3 3 3 3 3 3 3 3 4 4 4 4 4
0 0 1 1 1 1 1 1 1 1 1 1 1 0 0 0 0 0 0 0 0 0 0 -0 -0 -0 -0 -0 -0 -0 -0 -0 -1 -1 -1 -0 -0 0 1 1 1 1 1 1 1 1 1 2 2 2 2 3 3 3 3 3 3 3 3 3 3 3 3 3 3 3 4 4 4
0 0 0 0 1 1 1 1 1 1 1 0 0 0 0 0 0 0 0 0 -0 -0 -0 -0 -0 -0 -0 -0 -0 -0 -1 -1 -1 -1 -1 -1 -1 -0 0 0 1 1 1 1 1 1 1 1 2 2 2 2 2 2 2 2 2 2 2 2 3 3 3 3 3 3 3 3 3
0 0 0 0 0 1 1 1 1 0 0 0 0 0 0 0 0 0 0 -0 -0 -0 -0 -0 -1 -1 -1 -1 -1 -1 -1 -1 -1 -1 -1 -1 -1 -1 -1 -0 0 0 1 1 1 1 1 1 1 1 2 2 2 2 2 2 2 2 2 2 2 2 2 2 3 3 3 3 3
-0 0 0 0 0 0 0 0 0 0 0 0 0 0 0 0 0 0 -0 -0 -0 -0 -1 -1 -1 -1 -1 -1 -1 -1 -1 -1 -1 -1 -2 -2 -1 -1 -1 -1 -0 0 0 0 1 1 1 1 1 1 1 2 2 2 2 2 2 2 2 2 2 2 2 2 2 2 2 3 3
-0 -0 -0 0 0 0 0 0 0 0 0 0 0 0 0 0 -0 -0 -0 -0 -0 -1 -1 -1 -1 -1 -1 -1 -1 -1 -1 -1 -1 -2 -2 -2 -2 -2 -2 -1 -1 -0 0 0 0 0 1 1 1 1 1 1 1 2 2 2 2 2 2 2 2 2 2 2 2 2 2 2 2
-1 -1 -0 -0 0 0 0 0 0 0 0 -0 -0 -0 -0 -0 -0 -0 -0 -0 -1 -1 -1 -1 -1 -1 -1 -1 -1 -1 -1 -1 -2 -2 -2 -2 -2 -2 -2 -2 -1 -1 -0 -0 0 0 0 0 0 0 1 1 1 1 1 1 1 1 1 1 1 1 1 1 1 1 2 2 2
-1 -1 -1 -1 -0 0 0 0 0 0 -0 -0 -0 -0 -0 -0 -0 -0 -0 -1 -1 -1 -1 -1 -1 -1 -2 -2 -2 -2 -2 -2 -2 -2 -2 -2 -2 -2 -2 -2 -1 -1 -1 -0 -0 -0 -0 -0 0 0 0 0 1 1 1 1 1 1 1 1 1 1 1 1 1 1 1 1 1
-1 -1 -1 -1 -1 -0 0 0 0 0 -0 -0 -0 -0 -0 -0 -0 -0 -1 -1 -1 -1 -1 -1 -1 -1 -1 -2 -2 -2 -2 -2 -2 -3 -3 -3 -3 -2 -2 -2 -2 -1 -1 -1 -1 -1 -0 -0 -0 -0 -0 0 0 0 1 1 1 1 1 1 1 1 1 1 1 1 1 1 1
-1 -1 -1 -1 -1 -1 -0 -0 0 0 -0 -0 -0 -0 -0 -0 -0 -1 -1 -1 -1 -1 -1 -1 -1 -1 -1 -2 -2 -2 -2 -2 -3 -3 -3 -3 -3 -2 -2 -2 -2 -2 -1 -1 -1 -1 -1 -1 -1 -1 -1 -0 -0 0 0 0 0 1 1 1 0 0 0 0 0 0 0 1 1
-1 -1 -1 -1 -1 -1 -1 -0 -0 -0 -0 0 -0 -0 -0 -0 -0 -1 -1 -1 -1 -1 -1 -1 -1 -1 -1 -1 -2 -2 -2 -2 -2 -3 -3 -3 -3 -3 -3 -3 -2 -2 -2 -2 -2 -2 -1 -1 -1 -1 -1 -1 -1 -0 -0 -0 0 0 0 0 0 0 0 0 0 0 0 0 0
-1 -1 -1 -1 -1 -1 -1 -0 -0 -0 -0 -0 0 0 -0 -0 -0 -1 -1 -1 -1 -1 -1 -1 -1 -1 -1 -1 -2 -2 -2 -2 -2 -2 -3 -3 -3 -3 -3 -3 -3 -3 -2 -2 -2 -2 -2 -2 -2 -1 -1 -1 -1 -1 -1 -0 -0 -0 -0 0 0 0 0 -0 -0 -0 -0 0 -0
-1 -1 -1 -1 -1 -1 -1 -1 -0 -0 -0 -0 -0 -0 0 -0 -0 -1 -1 -1 -1 -1 -1 -1 -1 -1 -1 -2 -2 -2 -2 -2 -2 -2 -2 -3 -3 -3 -3 -3 -3 -3 -3 -2 -2 -2 -2 -2 -2 -2 -2 -2 -1 -1 -1 -1 -1 -1 -0 -0 -0 -0 0 -0 -0 -0 -0 -0 -0
-0 -1 -1 -1 -1 -1 -1 -1 -1 -0 -0 -0 -0 -0 -0 -0 -0 -1 -1 -1 -1 -1 -2 -2 -2 -2 -2 -2 -2 -2 -2 -2 -2 -2 -2 -2 -3 -3 -3 -3 -3 -3 -3 -2 -2 -2 -2 -2 -2 -3 -2 -2 -2 -1 -1 -1 -1 -1 -1 -1 -0 -0 -0 -0 -0 -0 -1 -1 -1
-0 -0 -1 -1 -1 -1 -1 -1 -1 -0 -0 -0 -0 -0 -0 -0 -0 -1 -1 -1 -1 -1 -2 -2 -2 -2 -2 -2 -2 -2 -2 -2 -2 -2 -2 -2 -3 -3 -3 -3 -3 -3 -2 -2 -2 -2 -2 -2 -2 -3 -3 -2 -2 -2 -1 -1 -1 -1 -1 -1 -1 -1 -1 -1 -1 -1 -1 -1 -1
-0 -0 -1 -1 -1 -1 -1 -1 -1 -1 -1 -1 -1 -0 -0 -0 -0 -1 -1 -1 -1 -1 -2 -2 -2 -2 -2 -2 -2 -2 -2 -2 -2 -2 -2 -2 -2 -3 -3 -3 -3 -2 -2 -1 -1 -1 -2 -2 -2 -3 -3 -3 -2 -2 -2 -2 -1 -1 -1 -1 -1 -1 -1 -1 -2 -2 -2 -2 -2
-0 -0 -0 -1 -1 -1 -1 -1 -1 -1 -1 -1 -1 -1 -1 -1 -1 -1 -1 -1 -1 -1 -1 -2 -2 -2 -2 -2 -2 -2 -2 -2 -2 -2 -2 -2 -2 -2 -2 -2 -2 -2 -2 -1 -1 -1 -2 -2 -2 -3 -3 -3 -2 -2 -2 -2 -2 -2 -2 -2 -2 -2 -2 -3 -3 -3 -3 -2 -2
-0 -0 -0 -1 -1 -1 -1 -1 -1 -1 -1 -1 -1 -1 -1 -1 -1 -1 -1 -1 -1 -1 -1 -2 -2 -2 -2 -2 -2 -2 -2 -2 -2 -2 -2 -2 -2 -2 -2 -2 -2 -2 -1 -1 -1 -1 -2 -2 -2 -3 -3 -3 -3 -2 -2 -2 -2 -2 -2 -2 -2 -3 -3 -3 -3 -3 -3 -2 -2
-0 -1 -1 -1 -1 -1 -1 -1 -1 -1 -1 -1 -1 -1 -1 -1 -1 -1 -1 -1 -1 -1 -1 -1 -2 -2 -2 -2 -2 -2 -2 -2 -2 -2 -2 -2 -2 -2 -2 -2 -2 -2 -1 -1 -1 -1 -1 -2 -2 -3 -3 -3 -3 -2 -2 -2 -2 -2 -2 -2 -2 -3 -3 -3 -3 -3 -3 -2 -2
-1 -1 -1 -1 -1 -1 -1 -1 -1 -1 -1 -1 -1 -1 -1 -1 -1 -1 -1 -1 -1 -1 -1 -1 -1 -2 -2 -2 -2 -2 -2 -2 -2 -2 -2 -2 -2 -2 -2 -2 -2 -1 -1 -1 -0 -1 -1 -1 -2 -2 -3 -2 -3 -2 -2 -2 -2 -2 -2 -2 -2 -2 -2 -2 -3 -3 -3 -2 -2
-1 -1 -1 -1 -1 -1 -1 -1 -1 -1 -1 -1 -1 -1 -1 -1 -1 -1 -1 -1 -1 -1 -1 -1 -1 -2 -2 -2 -2 -2 -2 -2 -2 -2 -2 -2 -2 -2 -2 -2 -2 -1 -1 -1 -0 -0 -1 -1 -2 -2 -2 -2 -2 -2 -2 -2 -2 -2 -2 -2 -2 -2 -2 -2 -2 -2 -2 -2 -2
-0 -1 -1 -1 -1 -1 -1 -1 -1 -1 -1 -1 -1 -1 -1 -1 -1 -1 -1 -1 -1 -1 -1 -1 -2 -2 -2 -2 -2 -2 -2 -2 -2 -2 -2 -2 -2 -2 -2 -1 -1 -1 -1 -1 -0 -0 -0 -1 -1 -2 -2 -2 -2 -2 -2 -2 -2 -2 -2 -2 -2 -2 -2 -2 -2 -2 -2 -2 -2
-0 -0 -1 -1 -1 -1 -1 -1 -1 -1 -1 -1 -1 -1 -1 -1 -1 -1 -1 -1 -1 -1 -1 -2 -2 -2 -2 -2 -2 -2 -2 -2 -2 -2 -2 -3 -2 -2 -2 -2 -1 -1 -1 -1 -0 -0 -0 -0 -1 -1 -2 -2 -2 -2 -2 -2 -2 -2 -2 -2 -2 -2 -2 -2 -2 -2 -2 -2 -2
-0 -0 -0 -1 -1 -1 -1 -1 -1 -1 -1 -1 -1 -1 -1 -1 -1 -1 -1 -1 -1 -1 -1 -2 -2 -2 -2 -2 -2 -2 -2 -2 -2 -2 -3 -3 -3 -3 -2 -2 -1 -1 -1 -1 -1 -0 0 -0 -1 -1 -1 -2 -2 -2 -2 -2 -3 -3 -3 -3 -3 -3 -3 -3 -3 -2 -2 -2 -2
-0 -0 -1 -1 -1 -1 -1 -1 -1 -1 -1 -1 -1 -1 -2 -2 -2 -2 -1 -1 -1 -1 -2 -2 -2 -2 -2 -2 -2 -2 -2 -2 -3 -3 -3 -3 -3 -3 -3 -2 -2 -1 -1 -1 -1 -0 0 0 -0 -1 -1 -1 -2 -2 -2 -2 -2 -3 -3 -3 -3 -3 -3 -3 -3 -3 -3 -3 -3
-0 -0 -1 -1 -1 -1 -1 -1 -1 -1 -1 -1 -1 -1 -2 -2 -2 -2 -2 -2 -2 -2 -2 -2 -2 -2 -2 -2 -2 -2 -2 -3 -3 -3 -3 -3 -3 -3 -3 -3 -2 -1 -1 -1 -1 -1 -0 -0 -1 -1 -1 -1 -2 -2 -2 -2 -2 -3 -3 -3 -3 -3 -3 -3 -3 -3 -3 -3 -3
-0 -1 -1 -1 -1 -1 -1 -1 -1 -1 -1 -1 -1 -1 -1 -2 -2 -2 -2 -2 -2 -2 -2 -2 -2 -2 -2 -2 -2 -2 -2 -3 -3 -3 -3 -3 -3 -3 -3 -3 -2 -2 -1 -1 -1 -1 -0 -0 -1 -1 -1 -1 -2 -2 -2 -2 -2 -3 -3 -3 -3 -3 -3 -3 -3 -3 -3 -3 -3
Height
793 794 794 794 794 794 794 794 794 794 794 794 795 795 795 795 795 795 796 796 796 796 797 797 798 798 799 799 800 800 800 800 801 802 803 804 804 805 806 807 807 807 808 808 809 809 809 809 809 809 809 809 809 809 809 809 809 809 809 809 810 810 810 811 811 812 812 812 813
794 794 794 794 794 795 795 795 795 795 795 795 795 795 796 796 796 796 796 796 797 797 797 798 798 799 799 799 800 800 800 800 800 801 802 803 804 804 805 806 806 806 807 807 808 808 808 809 809 809 809 809 809 809 809 809 809 809 809 809 809 809 810 810 811 811 812 812 812
794 794 794 794 795 795 795 795 795 795 795 796 796 796 796 796 796 796 797 797 797 798 798 798 799 799 799 800 800 800 800 800 800 800 801 802 803 804 804 804 805 805 806 806 807 807 807 808 808 808 808 808 808 808 808 808 808 809 809 809 809 809 810 810 811 811 811 812 812
794 794 794 795 795 795 795 796 796 796 796 796 796 796 796 797 797 797 797 797 798 798 798 799 799 799 799 800 800 800 799 799 799 799 800 801 802 802 803 803 804 804 805 805 806 806 806 807 807 807 807 807 807 807 807 807 808 808 809 809 809 809 810 810 810 811 811 811 812
794 794 794 795 795 795 795 796 796 796 796 796 797 797 797 797 797 797 797 798 798 798 799 799 799 799 799 799 799 799 799 799 799 799 800 800 801 802 802 803 804 804 805 805 805 805 805 806 806 806 806 806 806 806 807 807 807 808 808 809 809 809 809 810 810 810 811 811 811
794 794 794 794 795 795 795 796 796 796 796 797 797 797 797 797 797 797 797 798 798 798 798 799 799 799 799 799 799 799 799 799 799 799 799 800 801 802 803 803 804 804 805 804 804 804 804 804 805 805 805 805 806 806 806 807 807 807 808 808 809 809 809 809 810 810 810 811 811
794 794 794 794 795 795 795 796 796 796 796 797 797 797 797 797 797 797 797 797 798 798 798 798 798 798 798 798 798 798 799 799 799 799 799 800 801 802 803 804 804 804 804 804 804 803 803 804 804 804 805 805 805 805 806 806 807 807 807 808 808 808 809 809 809 809 810 810 810
794 794 794 794 795 795 795 795 796 796 796 796 797 797 797 797 797 797 797 797 797 797 797 798 798 798 798 798 798 798 799 799 799 799 800 800 801 802 803 803 803 803 803 803 803 803 803 803 803 804 804 804 805 805 805 806 806 807 807 808 808 808 808 809 809 809 809 810 810
794 794 794 794 795 795 795 795 796 796 796 796 796 796 796 796 796 796 797 797 797 797 797 797 797 797 797 798 798 798 799 799 799 800 800 801 801 802 802 802 802 802 802 802 802 802 802 802 803 803 804 804 804 805 805 806 806 806 807 807 807 808 808 809 809 809 809 810 810
794 794 794 794 795 795 795 795 795 796 796 796 796 796 796 796 796 796 796 796 796 797 796 796 797 797 797 797 797 798 798 799 799 799 800 800 801 801 800 800 800 800 801 801 802 802 802 802 802 802 803 804 804 804 805 805 805 806 806 806 807 807 808 809 809 809 809 809 810
794 794 794 794 795 795 795 795 795 795 796 796 796 796 796 796 796 796 796 796 796 796 796 796 796 796 796 797 797 797 797 797 798 798 799 799 799 799 798 798 799 799 800 801 801 802 802 802 802 802 802 803 804 804 804 805 805 805 806 806 807 807 808 808 809 809 809 809 810
794 794 794 795 795 795 795 795 795 795 795 795 795 796 796 796 796 796 796 796 796 795 795 795 795 796 796 796 796 796 796 796 796 797 797 797 797 796 796 797 798 799 800 801 801 801 801 801 801 802 802 802 803 804 804 804 804 805 805 806 806 807 807 808 809 809 809 810 810
794 794 794 795 795 795 795 795 795 795 795 795 795 795 795 795 795 795 795 795 795 795 795 795 795 795 795 795 795 796 796 795 795 796 796 796 796 796 796 797 798 799 800 800 801 801 801 801 801 801 802 802 803 803 803 804 804 804 805 805 806 806 807 808 808 809 809 810 810
794 794 794 794 794 795 795 795 795 795 795 795 795 795 795 795 795 795 795 795 794 794 794 794 794 794 794 795 795 795 795 795 795 795 795 796 796 796 797 797 799 799 800 800 801 801 801 801 801 801 802 802 802 803 803 803 804 804 804 805 805 806 807 808 808 809 810 810 811
794 794 794 794 794 794 794 794 794 794 795 795 795 795 795 795 795 795 795 794 794 794 794 794 794 794 794 794 794 794 795 795 795 795 795 796 796 797 798 798 799 800 800 801 801 801 801 801 801 802 802 802 802 803 803 803 803 804 804 805 805 806 807 808 809 809 810 811 811
793 793 794 794 794 794 794 794 794 794 794 794 794 795 795 795 795 795 794 794 794 794 794 794 794 794 794 794 794 794 794 795 795 795 796 796 797 798 798 799 800 800 801 801 801 801 801 802 802 802 802 802 802 802 803 803 803 804 804 804 805 806 807 808 809 810 810 811 812
792 793 793 793 793 794 794 794 794 794 794 794 794 794 794 794 795 795 795 794 794 794 794 794 794 794 794 794 794 794 794 795 795 796 796 797 798 798 799 799 800 801 801 801 801 801 802 802 802 802 802 802 802 802 803 803 803 804 804 804 805 806 807 808 809 810 811 811 812
791 792 792 793 793 793 793 794 794 794 794 794 794 794 794 794 794 795 795 795 794 794 794 794 794 794 794 794 794 794 795 795 795 796 797 797 798 799 799 800 800 801 801 801 801 802 802 802 802 802 802 802 802 803 803 803 803 804 804 804 805 806 807 809 809 810 811 812 812
791 791 791 792 792 793 793 793 794 794 794 794 794 794 794 794 794 795 795 795 794 794 794 794 794 794 794 794 794 795 795 795 796 796 797 797 798 799 799 800 800 801 801 801 801 802 802 802 802 802 802 802 802 803 803 803 803 804 804 805 806 807 808 809 810 810 811 812 812
790 790 791 791 792 792 792 793 793 793 794 794 794 794 794 794 794 795 795 794 794 794 794 794 794 794 794 795 795 795 795 795 796 796 797 798 798 799 799 800 801 801 801 801 801 802 802 802 802 802 802 802 802 803 803 803 804 804 804 805 806 807 808 809 810 810 811 812 812
789 789 790 790 791 791 792 792 793 793 793 794 794 794 794 794 794 795 795 795 794 794 794 794 794 794 795 795 795 795 795 796 796 797 797 798 798 799 799 800 800 801 801 801 801 802 802 802 802 802 802 802 802 803 803 803 804 804 805 806 806 807 808 809 810 810 811 811 812
787 788 789 789 790 791 791 792 792 792 793 793 793 794 794 794 794 795 795 795 795 794 794 794 794 795 795 795 795 795 796 796 796 797 797 798 799 799 800 800 800 801 801 801 801 802 802 802 802 802 802 802 802 803 803 804 804 804 805 806 807 807 808 809 810 810 811 811 812
786 787 788 789 789 790 790 791 792 792 792 793 793 793 794 794 794 794 795 795 795 795 795 795 795 795 795 795 795 796 796 796 797 797 797 798 799 799 800 800 800 801 801 801 801 801 801 802 802 802 802 802 802 803 803 804 804 805 805 806 807 807 808 809 809 810 811 811 812
785 786 787 788 788 789 789 790 791 791 792 792 792 793 793 793 794 794 794 795 795 795 795 795 795 795 795 795 796 796 796 796 797 797 797 798 799 799 799 800 800 801 801 801 801 801 801 801 801 801 802 802 802 803 803 804 804 805 805 806 806 807 808 809 809 810 810 811 811
784 785 786 786 787 788 789 789 790 790 791 791 792 792 792 793 793 794 794 794 795 795 795 795 795 795 796 796 796 796 796 797 797 797 797 798 798 799 799 800 800 801 801 801 801 802 802 801 801 801 801 802 802 803 803 804 804 805 805 806 806 807 808 808 809 809 810 811 811
783 784 784 785 786 787 787 788 789 789 790 790 791 791 792 792 793 793 794 794 794 795 795 795 795 796 796 796 796 796 796 797 797 797 797 798 798 799 799 799 800 800 800 801 801 801 801 801 801 801 802 802 802 803 803 804 804 805 805 806 806 807 807 808 809 809 810 810 811
781 782 783 784 785 785 786 787 788 789 789 790 790 791 791 791 792 792 793 793 794 794 794 795 795 795 796 796 796 796 796 796 797 797 797 797 798 798 799 799 799 799 800 800 801 801 802 802 802 802 802 802 802 803 803 804 804 805 805 806 806 807 807 808 808 809 809 810 810
779 781 782 783 784 784 785 786 787 787 788 789 789 790 790 791 791 792 792 793 793 794 794 794 795 795 795 796 796 796 796 796 796 796 797 797 797 798 798 798 799 799 799 800 801 801 802 802 802 802 802 802 803 803 803 804 804 805 805 806 807 807 807 808 808 809 809 810 810
778 779 780 781 782 783 784 785 785 786 787 788 789 789 789 790 790 791 791 792 792 793 793 794 794 794 795 795 795 796 796 796 796 796 796 796 797 797 798 798 798 799 799 800 801 802 802 802 802 802 802 803 803 803 804 804 805 805 806 806 807 807 808 808 808 809 809 810 810
777 778 779 780 781 782 783 783 784 785 786 787 788 788 789 789 789 790 790 791 791 792 792 793 794 794 794 795 795 795 795 795 795 796 796 796 797 797 797 798 798 798 799 800 801 802 802 802 802 802 803 803 804 804 804 805 805 806 806 807 807 808 808 808 809 809 809 810 811
775 776 777 779 779 780 781 782 783 784 785 786 787 787 788 788 789 789 790 790 790 791 792 792 793 793 794 794 794 795 795 795 795 795 796 796 797 797 797 798 798 798 799 800 801 802 802 802 802 803 803 803 804 804 805 805 806 806 807 807 808 808 808 809 809 809 810 811 811
773 774 776 777 778 779 780 781 782 783 784 785 785 786 787 787 788 789 789 790 790 790 791 791 792 792 793 794 794 794 794 794 794 795 795 796 796 797 797 798 798 798 799 799 801 801 802 802 803 803 803 803 804 804 805 805 806 807 807 808 808 809 809 809 810 810 811 811 812
772 773 774 775 776 778 779 780 781 782 783 784 784 785 786 787 787 788 789 789 789 790 790 790 791 792 792 793 793 794 794 794 794 794 795 795 796 797 797 797 798 798 798 799 800 801 801 802 803 803 803 803 804 804 805 806 806 807 807 808 809 809 810 810 811 811 812 812 813
770 771 772 774 775 776 778 779 780 781 782 782 783 784 785 786 786 787 788 788 789 789 789 790 790 791 791 792 792 793 793 794 794 794 794 795 795 796 797 797 797 798 798 799 800 801 801 802 802 803 803 803 804 804 805 806 807 807 808 809 809 809 810 811 811 812 813 813 814
768 769 770 772 773 775 776 777 778 779 780 781 782 783 784 784 785 786 787 788 788 789 789 789 790 790 791 791 792 792 793 793 793 794 794 794 795 796 796 797 797 797 798 798 800 800 801 801 802 803 803 804 804 805 805 806 807 808 808 809 809 810 810 811 812 812 813 814 814
766 767 769 770 771 773 774 776 777 778 779 780 780 781 782 783 784 785 786 787 788 788 788 789 789 790 790 791 791 792 792 793 793 793 794 794 794 795 795 796 797 797 798 798 799 800 801 801 802 803 803 804 804 805 805 806 807 808 808 809 809 810 811 811 812 812 813 814 814
764 765 767 768 769 771 772 774 775 776 777 778 779 780 781 782 783 784 785 786 787 787 788 788 789 789 789 790 790 791 791 792 793 793 793 794 794 794 795 795 796 797 797 798 799 800 801 801 801 802 802 803 804 805 806 806 807 808 808 809 809 810 811 811 812 812 813 814 814
762 764 765 766 768 769 770 772 773 774 775 776 778 779 780 781 782 783 784 785 785 786 787 787 788 788 789 789 790 790 791 792 792 793 793 793 794 794 794 795 796 796 797 797 798 799 800 801 801 801 802 803 804 805 805 806 807 808 808 809 809 810 810 811 812 812 813 814 814
761 762 763 764 766 767 769 770 771 772 773 775 776 777 779 779 780 782 783 784 784 785 786 786 787 787 788 789 789 790 790 791 792 792 793 793 793 794 794 794 795 796 797 797 798 799 800 801 801 801 801 803 804 804 805 806 807 807 808 809 809 810 810 811 812 812 813 814 814
759 760 762 763 764 765 766 768 769 770 772 773 774 776 777 778 779 780 781 782 783 784 785 785 786 787 788 788 789 789 790 790 791 792 792 793 793 793 794 794 794 795 796 797 797 798 799 800 800 800 801 803 804 804 805 805 806 807 808 808 809 809 810 811 812 812 813 814 814
758 759 760 761 762 764 765 766 767 769 770 771 773 774 775 777 778 779 780 781 782 783 784 785 785 786 787 788 788 789 789 790 790 791 792 792 793 793 793 794 794 795 795 796 797 798 799 800 800 800 801 802 803 804 804 805 806 806 807 808 809 809 810 811 812 812 813 814 814
Wind_Speed
1 1 1 2 3 5 6 7 8 8 8 8 7 7 6 6 6 6 5 4 4 3 3 4 4 4 4 3 2 2 2 3 3 4 4 5 6 7 7 8 8 8 8 7 7 6 5 5 5 5 5 5 5 5 5 5 6 6 7 7 8 8 8 9 9 8 8 8 7
2 2 2 3 4 5 6 7 7 7 7 7 6 6 6 6 6 6 6 6 5 4 4 4 4 4 4 3 2 2 2 2 3 3 4 5 5 6 7 7 8 8 9 8 8 7 7 6 6 5 5 5 5 5 5 5 6 6 6 6 6 6 7 7 8 8 8 9 8
3 3 3 3 4 5 5 6 7 7 7 6 6 6 6 6 6 6 6 6 5 4 4 4 4 4 3 2 2 1 2 2 3 3 4 4 5 5 6 6 7 7 8 8 8 8 7 7 6 5 5 5 6 6 6 6 7 7 7 6 6 6 7 7 7 7 7 8 8
4 4 4 4 4 5 5 6 6 6 6 6 6 6 6 6 6 6 5 5 4 4 4 4 4 4 3 2 1 1 1 2 2 3 4 4 5 5 5 6 6 6 7 7 7 6 6 5 5 5 6 7 8 8 8 8 8 8 8 7 7 7 7 7 7 7 7 7 8
5 4 4 4 5 5 6 6 6 7 7 7 7 6 6 6 6 6 5 4 4 4 4 4 4 4 3 2 1 1 1 2 3 3 4 4 4 5 5 5 5 6 6 6 6 5 5 5 5 5 6 8 9 9 9 9 9 9 8 8 8 8 8 7 7 7 7 7 7
5 5 4 4 5 5 5 6 7 7 8 8 7 7 7 7 7 6 6 5 3 3 2 3 3 3 3 2 1 1 1 1 3 3 4 4 5 5 5 6 6 6 6 6 6 5 5 5 5 6 7 8 9 9 9 10 10 10 9 8 8 8 8 8 8 8 8 7 7
6 5 5 5 5 5 5 6 7 7 8 8 7 7 7 7 7 6 6 5 4 3 3 3 3 3 2 2 1 0 0 1 2 3 4 4 5 5 6 6 6 6 6 5 5 5 5 5 6 6 7 8 9 10 10 10 10 10 9 8 8 8 9 8 8 8 7 7 6
6 6 6 5 5 5 5 5 6 6 7 7 7 7 7 7 6 6 5 5 4 4 3 3 3 3 3 2 1 1 1 1 2 3 4 4 5 5 5 6 5 5 5 5 5 5 5 5 6 6 7 8 9 10 10 10 10 9 9 8 8 8 9 9 9 8 7 7 6
6 6 6 6 5 5 5 5 5 6 6 6 6 6 6 6 6 5 5 4 4 4 4 4 4 4 3 3 2 2 2 2 3 3 4 4 4 4 4 4 4 4 4 4 5 5 6 6 6 6 7 8 9 10 11 10 10 9 9 9 9 8 9 9 9 8 8 7 6
6 6 6 6 5 5 5 5 5 5 5 5 6 6 6 6 5 5 5 5 5 5 5 5 5 5 5 4 4 4 4 4 4 4 4 4 3 3 2 2 2 2 3 4 5 6 6 6 7 7 7 8 9 10 10 10 10 10 9 9 9 9 8 9 9 9 8 7 6
7 7 6 6 6 5 5 5 5 5 5 5 5 5 5 6 5 5 5 5 5 5 6 6 6 6 5 5 5 5 5 5 5 5 5 4 3 2 2 1 2 2 3 5 5 6 6 7 7 7 7 8 8 9 10 10 10 10 10 10 10 9 9 9 9 9 9 8 6
7 7 7 6 6 6 5 5 5 5 4 4 5 5 5 5 5 5 5 6 6 6 6 6 6 6 6 6 6 6 7 7 6 5 5 4 3 2 2 2 2 3 4 5 5 6 6 6 6 7 7 7 8 9 10 10 9 9 10 10 10 10 10 10 10 10 9 8 6
7 7 7 7 7 6 6 6 5 5 4 4 4 4 4 5 5 5 5 6 6 6 6 6 7 7 6 6 6 6 7 7 7 6 5 4 3 3 3 2 3 3 4 5 6 5 5 5 6 6 6 6 7 8 9 9 9 9 10 10 10 10 10 10 10 10 9 7 6
8 8 8 8 7 7 7 6 5 5 5 4 4 4 4 4 5 5 5 5 6 6 6 6 6 6 6 6 6 6 7 7 7 6 5 4 4 4 3 3 3 4 5 6 6 5 5 5 5 6 6 6 6 8 9 9 9 9 10 10 11 11 11 11 11 10 9 8 6
9 9 9 8 8 8 7 7 6 5 5 4 4 4 3 4 4 4 4 5 5 5 6 6 6 6 6 6 6 6 6 7 7 6 5 5 5 5 5 5 5 5 6 7 6 6 5 5 6 6 7 7 7 8 9 9 10 10 10 11 11 12 12 11 11 10 9 8 7
9 9 10 9 9 9 8 7 7 6 5 5 4 4 3 3 3 3 3 3 4 4 5 5 5 5 5 5 5 6 6 7 7 6 6 5 6 6 6 6 6 6 7 7 7 6 5 5 6 7 8 9 8 8 9 9 9 10 10 11 12 12 12 12 12 11 10 9 7
11 10 10 11 11 10 9 8 7 7 6 5 5 4 3 3 2 1 1 2 3 4 4 4 4 4 4 4 5 5 6 7 7 7 7 7 7 7 7 7 7 7 7 7 7 7 6 6 7 8 9 9 9 8 8 9 9 9 10 11 12 12 12 12 12 12 11 9 8
12 12 11 11 12 11 10 9 8 7 7 6 5 5 4 3 2 1 1 2 3 3 3 4 3 3 3 4 4 5 6 6 7 8 8 9 9 9 8 8 7 7 7 7 7 7 7 7 8 9 9 9 9 8 8 8 8 9 10 11 11 12 12 12 12 11 10 9 7
14 13 13 12 12 12 11 10 9 8 8 7 6 5 4 3 2 1 0 2 3 3 3 3 3 3 3 3 3 4 5 5 6 7 8 9 10 9 9 8 8 8 8 8 7 8 8 8 9 9 9 9 9 8 8 8 8 9 9 10 11 11 11 11 11 10 9 7 7
16 15 14 13 13 12 12 11 10 9 8 7 7 6 5 4 3 2 1 2 2 3 3 3 3 3 3 3 3 4 4 4 4 5 7 8 9 9 9 9 9 9 9 8 8 8 8 9 9 9 9 9 9 9 9 8 8 9 9 10 10 10 10 10 10 9 8 6 6
17 16 15 15 14 13 12 12 11 10 9 8 8 7 6 5 4 3 2 2 2 3 3 2 2 2 3 3 3 3 3 4 4 4 6 7 8 8 9 9 9 10 9 9 9 9 9 9 9 10 9 9 9 9 9 9 9 9 9 10 10 10 10 9 9 8 7 7 6
18 17 16 15 15 14 13 12 12 11 10 10 9 8 8 7 5 4 3 2 2 2 2 1 2 2 3 3 2 2 3 3 4 5 6 7 8 8 9 9 10 10 10 10 10 10 9 10 10 10 9 9 10 10 10 10 10 10 10 10 11 10 10 9 9 8 8 8 7
18 17 17 16 16 15 14 14 13 12 11 11 10 10 9 8 7 6 4 3 3 2 1 1 2 2 3 3 3 3 3 4 4 5 6 7 8 9 9 9 10 10 10 10 10 10 10 10 10 10 10 10 10 10 10 10 10 10 11 11 11 11 11 10 10 9 9 8 8
18 18 17 17 16 16 15 15 14 13 12 12 11 11 11 10 9 8 7 5 4 3 3 3 3 3 4 4 4 3 4 4 5 6 7 8 9 9 10 10 10 10 10 10 10 10 10 11 11 10 10 10 10 10 10 10 11 11 12 12 12 12 12 12 11 11 10 9 8
18 18 18 18 17 17 16 16 15 14 13 12 12 11 11 11 10 10 8 7 5 4 4 4 4 5 5 5 4 4 4 4 5 7 8 9 10 10 10 10 10 11 10 10 10 10 10 10 11 11 10 10 10 10 10 11 11 12 12 13 13 13 13 13 12 12 11 10 10
19 19 19 18 18 17 17 16 15 14 13 12 12 12 12 12 11 11 10 8 7 6 6 6 6 6 6 6 5 5 4 4 4 6 8 9 10 11 11 12 11 11 10 9 8 8 9 9 10 10 10 10 10 11 11 12 12 13 13 13 14 14 14 14 14 13 12 12 12
19 19 19 19 18 18 17 16 15 15 14 13 13 13 12 12 12 12 11 10 8 8 7 7 7 7 6 6 6 5 5 4 4 4 6 8 10 11 11 11 11 10 9 8 7 7 8 8 9 10 10 10 11 12 13 13 13 14 14 14 14 14 15 15 15 15 14 14 14
20 20 19 19 19 18 17 16 15 15 14 14 13 13 13 13 13 13 12 11 9 9 9 8 8 7 6 6 6 5 5 4 4 3 4 5 7 9 10 10 9 9 9 8 7 7 7 8 8 9 10 11 12 13 14 14 15 15 15 15 15 15 15 16 16 16 16 15 15
21 20 20 19 19 18 18 17 16 15 14 14 14 13 13 14 14 14 13 12 11 10 10 9 8 7 6 6 6 5 5 5 4 4 4 4 6 7 8 9 10 10 10 8 7 7 7 8 8 9 10 13 14 14 15 15 16 16 16 16 16 16 16 17 17 17 16 16 15
22 21 20 20 19 19 18 17 16 15 15 14 14 14 14 15 15 15 15 13 12 11 10 9 8 7 7 6 6 5 5 5 5 4 4 5 6 7 9 11 11 11 10 8 7 7 8 8 8 9 11 14 15 16 16 16 16 16 16 16 16 16 16 16 16 16 16 15 15
23 22 21 20 20 19 19 18 17 16 15 15 15 15 15 15 16 16 16 14 13 11 10 9 9 8 7 6 6 5 5 5 5 5 5 6 6 8 10 11 12 11 10 9 8 7 8 8 8 9 11 15 16 16 16 17 16 16 16 16 15 15 14 14 14 14 14 14 14
24 23 22 21 21 20 19 18 17 16 16 15 15 16 16 16 17 17 16 15 13 12 12 11 10 9 8 7 7 6 5 5 5 5 5 6 7 9 10 11 11 10 10 9 8 8 8 8 9 9 11 15 17 17 17 17 16 16 16 15 14 14 13 13 13 13 13 13 14
24 24 23 22 21 20 20 19 18 17 17 16 16 16 17 17 17 17 17 16 15 14 13 12 11 11 10 9 8 7 6 5 5 5 5 6 8 9 10 10 10 10 10 9 9 8 8 8 9 9 10 13 16 17 17 16 16 16 15 15 14 13 13 12 12 12 12 12 13
26 25 24 23 22 21 20 20 19 18 18 17 17 17 17 18 18 18 18 17 17 16 14 13 12 11 10 10 9 8 7 6 5 5 6 7 8 9 10 9 9 9 9 8 9 9 10 9 9 10 10 12 15 16 16 16 15 15 14 14 14 13 12 12 12 12 12 12 12
27 26 25 24 23 22 21 21 20 19 19 19 19 18 18 19 19 19 19 18 17 16 15 14 13 12 11 10 10 9 9 8 7 6 6 7 9 10 10 10 10 9 8 7 8 10 11 10 10 10 10 11 13 14 15 15 14 14 13 13 12 12 12 12 12 12 12 12 12
28 27 26 25 24 23 23 22 21 21 20 20 20 20 20 20 19 19 18 18 18 17 17 15 14 13 12 12 11 11 10 9 8 7 7 8 9 11 11 11 11 10 9 7 7 10 12 11 11 11 11 10 11 12 13 13 13 12 12 11 11 11 11 11 11 12 12 12 12
29 28 27 26 25 25 24 23 23 22 22 22 22 21 21 21 20 19 19 18 18 18 18 17 16 15 14 13 13 12 12 11 10 9 8 8 10 11 12 13 12 11 10 8 7 9 11 12 13 13 12 10 10 11 12 12 11 11 11 10 10 10 10 10 10 10 11 11 11
29 29 28 27 27 26 25 25 24 24 24 23 23 22 22 21 21 20 20 19 19 19 19 18 17 16 15 14 14 13 12 12 11 10 9 9 10 11 12 13 14 13 11 9 7 8 11 12 14 15 13 10 10 10 11 11 11 11 10 10 9 9 9 9 9 9 9 9 9
29 29 29 28 28 27 27 26 26 25 25 24 23 23 23 22 22 21 20 20 20 19 19 19 18 17 16 15 14 13 13 13 12 11 10 9 9 10 12 13 15 14 13 11 7 7 10 12 15 15 13 11 10 10 11 11 11 11 10 10 10 9 9 9 8 8 8 8 8
29 29 29 29 28 28 28 27 27 26 25 25 24 24 24 23 23 22 21 20 20 20 19 19 18 17 16 15 15 14 14 13 13 12 11 10 10 10 11 13 14 15 15 12 9 7 9 12 15 15 13 11 10 10 11 12 12 12 12 11 11 10 10 9 8 8 8 8 8
29 29 29 29 29 29 28 28 27 26 25 25 25 24 24 23 22 22 21 21 21 20 20 20 19 18 17 16 15 15 14 14 13 13 12 11 10 10 10 11 14 15 16 14 11 8 8 11 14 15 14 12 11 11 11 12 13 14 14 13 12 11 11 10 9 9 8 8 8
Wind_Direction
308 268 224 213 205 194 186 182 184 189 194 197 196 196 195 196 195 199 205 210 204 190 169 155 153 154 155 152 152 159 172 180 193 204 210 209 205 201 200 203 206 209 212 216 221 226 234 241 245 249 250 248 242 233 227 225 224 226 228 230 229 229 229 227 227 226 222 219 216
287 254 228 217 218 211 203 195 192 193 196 199 200 199 200 201 200 201 202 199 193 186 173 161 157 157 155 149 144 149 161 173 189 205 216 219 216 213 210 210 212 215 218 222 227 233 240 246 248 246 241 233 223 216 213 215 213 213 213 214 212 214 216 216 217 218 219 219 221
285 264 249 241 237 231 222 212 206 201 200 201 206 208 209 210 210 207 202 197 190 182 171 163 159 158 157 154 155 159 165 172 185 201 213 220 222 221 222 223 224 224 225 227 229 233 237 241 241 236 227 219 208 204 201 199 195 195 198 199 200 202 202 203 204 208 212 217 223
290 271 261 258 257 253 245 237 230 224 219 218 220 222 224 226 226 224 220 212 196 180 170 165 164 163 166 174 185 193 190 184 186 198 209 216 220 225 230 232 232 229 227 225 223 222 223 225 224 223 220 214 204 198 195 191 185 185 188 191 195 198 201 202 204 209 216 222 228
294 279 269 264 263 264 263 261 255 248 244 241 240 238 240 243 247 250 250 241 215 190 176 173 173 176 180 190 205 221 219 200 194 199 207 212 220 226 229 228 224 219 214 209 203 201 203 208 211 213 214 209 201 195 190 187 183 183 187 190 193 198 205 209 216 225 232 235 235
295 287 278 271 268 267 268 269 266 262 259 258 255 252 252 256 261 266 265 259 244 223 206 197 196 197 200 205 219 247 230 208 200 203 208 214 219 222 221 217 211 205 200 194 189 189 193 201 208 211 208 204 198 193 188 185 183 184 189 193 198 203 208 212 221 231 237 236 232
293 288 283 277 273 270 270 270 270 269 267 265 263 261 262 266 270 272 274 272 262 246 233 228 226 228 231 237 255 281 222 203 203 207 213 218 221 221 218 213 206 200 196 191 187 188 192 199 207 209 206 203 199 194 190 188 187 189 193 198 204 208 210 212 220 227 230 226 220
288 283 280 277 275 273 271 270 269 267 266 266 265 266 268 272 274 276 276 272 260 250 247 248 251 255 263 272 283 288 248 217 215 214 218 222 224 223 220 213 206 201 199 198 198 198 198 200 206 206 205 205 201 197 193 191 191 194 198 203 207 210 211 212 216 220 221 217 213
277 275 272 272 271 270 269 268 265 263 262 264 266 270 272 274 276 276 274 267 261 257 257 258 263 269 274 279 282 280 269 249 234 227 224 224 226 226 223 217 213 213 214 217 217 214 210 208 209 208 207 207 203 198 195 194 194 196 199 203 204 207 209 210 212 213 213 211 211
264 264 263 261 260 260 261 260 259 257 259 262 268 272 275 277 278 277 275 271 269 266 265 265 269 273 276 279 279 279 274 266 252 240 231 230 233 236 235 233 238 242 241 234 229 223 219 216 210 207 206 207 204 199 195 196 196 196 198 201 202 202 203 206 206 206 205 206 208
254 257 256 253 251 250 251 249 250 252 256 261 268 274 279 282 283 281 279 277 276 274 274 275 277 277 277 278 279 279 279 276 269 256 244 241 243 251 261 270 276 270 258 243 233 226 221 217 210 204 202 203 203 199 195 196 197 197 197 199 199 198 199 202 201 200 200 202 207
242 248 251 249 246 244 243 242 245 250 256 262 269 276 281 283 284 283 283 282 283 284 284 283 282 281 279 278 278 280 281 281 280 272 261 252 251 253 264 277 281 274 262 248 237 229 223 218 211 204 200 199 202 199 196 195 198 198 197 197 197 197 199 200 199 197 197 201 206
230 236 243 245 243 239 238 238 243 248 255 260 266 272 277 281 283 284 286 289 292 292 292 289 286 284 281 278 277 276 278 281 284 281 271 258 250 247 250 264 269 266 258 249 240 234 230 225 217 208 201 199 203 203 199 196 199 201 201 199 198 199 200 201 199 197 198 201 207
223 226 234 240 239 236 234 235 239 244 249 252 256 262 270 276 282 286 291 295 299 300 298 295 290 287 282 278 274 272 272 275 279 279 270 254 244 241 244 252 255 254 250 246 241 240 237 233 226 215 206 201 205 206 203 199 201 203 205 203 201 202 203 202 201 200 200 203 209
223 222 226 233 234 233 231 232 234 237 240 242 243 249 259 269 279 288 296 303 308 307 304 300 295 289 283 277 270 266 265 266 269 268 260 247 237 236 240 244 245 244 242 241 240 239 238 236 231 221 212 205 206 207 206 202 203 205 206 205 203 204 204 203 202 201 202 206 212
224 222 222 226 228 228 228 228 229 231 232 233 233 236 244 254 269 287 303 315 319 316 312 305 299 291 281 272 265 259 257 256 256 251 243 233 228 229 232 237 238 239 238 238 238 236 233 229 228 223 216 208 206 207 207 205 205 207 207 205 204 203 203 203 201 200 201 205 211
226 224 222 223 224 223 223 222 224 225 226 225 224 224 224 229 238 270 319 336 336 330 321 313 302 290 278 266 256 250 248 247 246 239 229 222 220 221 225 229 232 234 233 233 232 230 226 221 219 217 215 211 209 208 207 207 208 208 208 206 205 203 202 201 200 198 199 202 208
223 224 223 223 223 221 220 219 219 219 219 218 215 212 209 205 201 195 3 356 351 340 330 318 302 285 269 255 244 238 237 238 238 233 225 219 217 218 220 223 225 226 226 226 224 222 220 217 213 212 211 211 212 212 211 210 209 210 210 208 206 204 201 198 196 195 196 199 206
220 222 223 224 223 223 221 220 218 216 214 212 209 206 201 199 197 193 334 354 351 345 335 319 301 279 256 238 227 222 222 226 229 228 225 220 216 215 217 218 218 219 220 219 218 216 215 214 211 209 209 210 212 213 213 212 210 209 208 206 204 201 198 193 191 190 193 198 205
217 220 222 223 224 224 224 223 220 217 213 209 208 207 208 208 211 222 267 327 339 340 334 319 295 269 245 223 212 204 201 203 210 218 220 216 212 212 212 213 214 214 214 214 213 212 211 211 210 208 208 210 210 210 210 209 207 204 201 198 195 193 190 187 186 186 189 195 204
215 218 220 221 222 223 224 225 223 221 217 213 213 213 215 217 221 228 251 292 322 330 328 311 283 257 235 218 204 194 185 186 189 201 208 205 203 204 206 208 210 211 210 209 209 209 208 209 208 207 207 208 207 205 204 202 200 197 193 189 185 183 181 181 180 181 184 189 196
214 215 218 219 221 222 224 225 225 224 222 220 219 219 219 220 220 225 239 262 290 307 307 286 255 234 219 210 201 191 185 182 182 188 192 192 192 196 200 203 206 208 207 207 207 208 208 208 207 206 205 204 201 200 198 197 195 191 186 182 178 176 174 174 175 177 179 183 186
214 214 216 218 219 221 223 224 225 225 225 224 224 223 222 220 219 221 228 242 250 253 239 223 209 201 193 189 188 192 194 190 184 182 182 183 186 191 197 201 203 204 204 204 205 207 208 207 205 204 204 201 198 196 195 194 192 188 183 178 174 171 169 169 170 172 174 176 178
215 214 215 217 218 220 221 223 224 224 225 226 226 226 225 222 218 217 220 228 227 217 199 189 183 179 175 173 176 186 194 195 188 183 181 182 186 191 196 200 202 203 203 203 206 209 210 208 204 203 203 202 198 195 192 191 190 187 183 177 172 169 167 166 167 168 169 169 168
215 214 215 216 218 219 221 222 223 224 225 226 227 227 226 224 220 216 216 217 213 201 186 178 173 170 166 164 165 171 180 188 188 186 184 186 189 194 199 203 204 205 205 207 208 210 211 211 209 206 204 202 198 193 189 187 186 185 182 177 173 169 166 165 165 165 164 162 158
214 214 214 216 218 219 221 223 224 225 226 226 226 227 226 224 220 217 214 211 205 193 181 173 169 164 161 158 157 157 159 166 178 185 188 190 194 198 202 206 207 208 207 204 198 198 202 206 209 210 207 203 196 189 184 181 181 180 179 177 174 171 168 164 162 160 158 154 150
214 213 214 216 218 220 222 223 224 225 226 226 226 226 225 224 220 216 212 208 199 188 178 173 168 163 158 155 153 150 147 145 152 170 184 191 195 198 201 205 206 203 195 184 179 180 184 189 199 204 204 198 191 184 179 175 174 174 174 173 173 171 168 163 159 155 151 148 145
214 214 214 216 218 220 222 223 225 226 226 226 226 226 225 222 219 215 210 204 197 187 179 175 169 164 160 158 155 149 142 134 131 139 160 178 188 192 194 194 189 177 166 161 168 173 176 179 186 193 194 188 182 177 174 171 168 168 168 167 167 166 163 159 155 151 147 144 142
214 214 214 216 218 220 222 223 225 226 226 226 226 225 224 221 217 213 209 204 198 191 185 180 177 174 170 167 161 154 146 136 129 128 137 153 167 174 174 169 160 152 149 154 165 171 173 175 179 184 186 181 176 172 169 166 164 163 162 161 161 160 158 155 153 150 147 144 142
215 215 215 217 218 220 222 223 225 226 226 226 225 224 222 219 216 212 208 206 202 198 194 190 188 185 182 177 172 165 157 147 137 134 137 143 151 155 155 150 146 144 146 155 166 171 173 175 177 180 180 177 173 169 166 163 162 160 159 158 158 158 157 155 153 150 148 146 144
216 216 216 217 219 220 222 223 224 225 225 225 224 222 220 218 214 211 209 208 205 203 202 201 198 195 193 192 187 181 172 162 153 147 146 147 148 149 149 147 147 146 148 156 166 170 171 172 175 177 178 177 173 169 165 162 161 160 158 157 157 157 156 154 153 150 149 147 146
216 216 217 218 219 221 222 223 224 224 224 223 222 221 219 217 214 212 211 210 208 206 205 205 204 202 202 202 201 196 190 180 172 165 160 158 155 153 151 151 151 151 152 158 165 168 168 168 171 174 178 178 175 171 167 164 161 161 160 159 158 156 154 152 151 149 148 148 147
217 217 217 218 219 220 221 222 223 224 223 223 222 220 218 217 215 213 211 210 209 208 208 210 210 208 207 208 209 207 203 197 190 183 177 172 167 162 160 160 161 160 160 163 168 170 168 166 169 171 175 177 176 175 172 169 166 163 162 161 160 158 155 152 151 150 150 150 152
217 217 217 218 219 220 220 221 222 222 222 222 221 220 218 217 214 213 211 211 211 212 213 216 217 216 215 214 214 213 211 207 203 199 195 189 183 177 173 172 172 170 170 172 175 174 171 169 169 170 172 172 174 176 176 174 172 169 166 164 163 162 161 159 157 157 157 158 160
217 217 217 217 218 219 219 220 220 221 221 220 220 219 218 217 216 215 214 213 213 214 216 219 221 220 218 216 216 216 215 212 211 210 208 203 196 191 186 182 181 179 179 183 184 180 176 173 172 174 173 169 169 172 176 177 176 174 172 170 169 168 167 166 166 165 166 167 169
218 217 217 217 217 218 218 218 219 219 219 220 219 219 218 218 218 217 217 216 216 216 217 218 219 218 216 214 214 215 216 215 214 214 213 209 205 201 197 192 188 184 184 189 194 189 183 177 177 180 180 172 166 167 171 174 175 175 175 174 174 173 173 173 173 172 173 174 176
219 218 217 217 216 217 217 218 218 218 219 219 220 219 218 218 218 218 218 218 217 218 217 217 216 215 213 212 213 213 214 214 215 215 214 211 207 204 202 198 193 188 185 188 197 196 190 185 183 187 189 183 174 170 170 171 173 174 174 174 174 175 175 176 176 176 177 179 180
220 219 218 217 217 217 217 217 218 218 219 220 220 220 220 219 219 218 218 218 218 218 218 217 215 213 213 213 213 212 212 213 214 214 213 210 206 204 203 202 197 192 187 187 194 196 194 193 190 193 198 197 191 184 180 177 176 176 176 175 175 174 174 174 174 175 176 177 180
222 220 219 218 217 217 217 217 218 219 220 220 220 220 220 220 219 219 219 219 219 220 219 218 216 214 213 214 213 212 211 211 212 212 211 208 204 203 203 203 200 195 190 190 192 193 193 194 192 197 203 208 207 201 194 188 185 184 183 181 180 177 175 174 173 172 172 172 174
224 222 220 219 218 218 218 219 220 221 221 221 220 220 220 219 219 219 219 220 220 221 221 219 217 216 214 214 213 212 210 210 210 210 209 205 203 203 204 204 201 196 193 192 193 193 194 195 195 198 204 210 213 210 204 199 195 193 192 190 188 186 182 179 176 175 173 173 172
225 223 222 220 220 219 219 220 221 222 222 222 222 221 221 220 219 219 219 219 220 220 220 220 219 217 215 214 213 211 209 209 209 209 207 204 202 204 206 206 202 197 193 192 192 193 195 197 197 200 204 209 213 213 210 206 203 201 200 198 197 195 192 189 186 183 182 182 180